Time,TemperatureF,DewpointF,PressureIn,WindDirection,WindDirectionDegrees,WindSpeedMPH,WindSpeedGustMPH,Humidity,HourlyPrecipIn,Conditions,Clouds,dailyrainin,SoftwareType,DateUTC
2013-07-28 00:00:00,75.6,73.1,29.96,WNW,291,0.0,0.0,92,0.00,,,0.00,Wunderground v.1.15,2013-07-28 04:00:00,
2013-07-28 00:05:00,75.5,72.7,29.96,WNW,291,0.0,0.0,91,0.00,,,0.00,Wunderground v.1.15,2013-07-28 04:05:00,
2013-07-28 00:15:00,75.2,72.7,29.96,WNW,291,0.0,0.0,92,0.00,,,0.00,Wunderground v.1.15,2013-07-28 04:15:00,
2013-07-28 00:20:00,75.1,72.6,29.96,WNW,291,0.0,0.0,92,0.00,,,0.00,Wunderground v.1.15,2013-07-28 04:20:00,
2013-07-28 00:25:00,75.1,72.6,29.96,WNW,291,0.0,0.0,92,0.00,,,0.00,Wunderground v.1.15,2013-07-28 04:25:00,
2013-07-28 00:30:00,75.1,72.6,29.96,WNW,291,0.0,0.0,92,0.00,,,0.00,Wunderground v.1.15,2013-07-28 04:30:00,
2013-07-28 00:40:00,75.0,72.5,29.96,WNW,291,0.0,0.0,92,0.00,,,0.00,Wunderground v.1.15,2013-07-28 04:40:00,
2013-07-28 00:45:00,75.0,72.5,29.96,WNW,291,0.0,0.0,92,0.00,,,0.00,Wunderground v.1.15,2013-07-28 04:45:00,
2013-07-28 00:55:00,74.9,72.4,29.96,WNW,291,0.0,0.0,92,0.00,,,0.00,Wunderground v.1.15,2013-07-28 04:55:00,
2013-07-28 01:05:00,74.7,72.5,29.96,WNW,291,0.0,0.0,93,0.00,,,0.00,Wunderground v.1.15,2013-07-28 05:05:00,
2013-07-28 01:15:00,74.6,72.4,29.96,WNW,291,0.0,0.0,93,0.00,,,0.00,Wunderground v.1.15,2013-07-28 05:15:00,
2013-07-28 01:20:00,74.6,72.4,29.96,WNW,291,0.0,0.0,93,0.00,,,0.00,Wunderground v.1.15,2013-07-28 05:20:00,
2013-07-28 01:30:00,74.6,72.4,29.96,WNW,291,0.0,0.0,93,0.00,,,0.00,Wunderground v.1.15,2013-07-28 05:30:00,
2013-07-28 01:35:00,74.6,72.4,29.95,WNW,291,0.0,0.0,93,0.00,,,0.00,Wunderground v.1.15,2013-07-28 05:35:00,
2013-07-28 01:40:00,74.5,72.3,29.95,WNW,291,0.0,0.0,93,0.00,,,0.00,Wunderground v.1.15,2013-07-28 05:40:00,
2013-07-28 01:45:00,74.5,72.7,29.95,WNW,291,0.0,0.0,94,0.00,,,0.00,Wunderground v.1.15,2013-07-28 05:45:00,
2013-07-28 01:50:00,74.4,72.6,29.95,WNW,291,0.0,0.0,94,0.00,,,0.00,Wunderground v.1.15,2013-07-28 05:50:00,
2013-07-28 02:00:00,74.2,72.4,29.95,WNW,291,0.0,0.0,94,0.00,,,0.00,Wunderground v.1.15,2013-07-28 06:00:00,
2013-07-28 02:05:00,74.2,72.4,29.95,WNW,291,0.0,0.0,94,0.00,,,0.00,Wunderground v.1.15,2013-07-28 06:05:00,
2013-07-28 02:15:00,74.0,72.2,29.95,WNW,291,0.0,0.0,94,0.00,,,0.00,Wunderground v.1.15,2013-07-28 06:15:00,
2013-07-28 02:25:00,73.8,72.3,29.95,WNW,291,0.0,0.0,95,0.00,,,0.00,Wunderground v.1.15,2013-07-28 06:25:00,
2013-07-28 02:30:00,73.7,72.2,29.95,WNW,291,0.0,0.0,95,0.00,,,0.00,Wunderground v.1.15,2013-07-28 06:30:00,
2013-07-28 02:40:00,73.7,72.2,29.94,WNW,291,0.0,0.0,95,0.00,,,0.00,Wunderground v.1.15,2013-07-28 06:40:00,
2013-07-28 02:45:00,73.5,72.0,29.95,WNW,291,0.0,0.0,95,0.00,,,0.00,Wunderground v.1.15,2013-07-28 06:45:00,
2013-07-28 02:55:00,73.4,71.9,29.94,WNW,291,0.0,0.0,95,0.00,,,0.00,Wunderground v.1.15,2013-07-28 06:55:00,
2013-07-28 03:00:00,73.4,72.2,29.94,WNW,291,0.0,0.0,96,0.00,,,0.00,Wunderground v.1.15,2013-07-28 07:00:00,
2013-07-28 03:10:00,73.4,72.2,29.94,WNW,291,0.0,0.0,96,0.00,,,0.00,Wunderground v.1.15,2013-07-28 07:10:00,
2013-07-28 03:15:00,73.3,72.1,29.94,WNW,291,0.0,0.0,96,0.00,,,0.00,Wunderground v.1.15,2013-07-28 07:15:00,
2013-07-28 03:25:00,73.4,72.2,29.94,WNW,291,0.0,0.0,96,0.00,,,0.00,Wunderground v.1.15,2013-07-28 07:25:00,
2013-07-28 03:35:00,73.5,72.3,29.93,WNW,291,0.0,0.0,96,0.00,,,0.00,Wunderground v.1.15,2013-07-28 07:35:00,
2013-07-28 03:40:00,73.6,72.4,29.93,WNW,291,0.0,0.0,96,0.00,,,0.00,Wunderground v.1.15,2013-07-28 07:40:00,
2013-07-28 03:50:00,73.6,72.4,29.93,WNW,291,0.0,0.0,96,0.00,,,0.00,Wunderground v.1.15,2013-07-28 07:50:00,
2013-07-28 04:00:00,73.5,72.3,29.93,WNW,291,0.0,0.0,96,0.00,,,0.00,Wunderground v.1.15,2013-07-28 08:00:00,
2013-07-28 04:05:00,73.4,72.2,29.93,WNW,291,0.0,0.0,96,0.00,,,0.00,Wunderground v.1.15,2013-07-28 08:05:00,
2013-07-28 04:10:00,73.3,72.1,29.93,WNW,291,0.0,0.0,96,0.00,,,0.00,Wunderground v.1.15,2013-07-28 08:10:00,
2013-07-28 04:20:00,73.2,72.0,29.93,WNW,291,0.0,0.0,96,0.00,,,0.00,Wunderground v.1.15,2013-07-28 08:20:00,
2013-07-28 04:25:00,73.1,71.9,29.93,WNW,291,0.0,0.0,96,0.00,,,0.00,Wunderground v.1.15,2013-07-28 08:25:00,
2013-07-28 04:35:00,72.9,71.7,29.93,WNW,291,0.0,0.0,96,0.00,,,0.00,Wunderground v.1.15,2013-07-28 08:35:00,
2013-07-28 04:45:00,72.8,71.6,29.94,WNW,291,0.0,0.0,96,0.00,,,0.00,Wunderground v.1.15,2013-07-28 08:45:00,
2013-07-28 04:50:00,72.7,71.5,29.94,WNW,291,0.0,0.0,96,0.00,,,0.00,Wunderground v.1.15,2013-07-28 08:50:00,
2013-07-28 05:00:00,72.6,71.7,29.94,WNW,291,0.0,0.0,97,0.00,,,0.00,Wunderground v.1.15,2013-07-28 09:00:00,
2013-07-28 05:05:00,72.6,71.7,29.94,WNW,291,0.0,0.0,97,0.00,,,0.00,Wunderground v.1.15,2013-07-28 09:05:00,
2013-07-28 05:10:00,72.5,71.6,29.94,WNW,291,0.0,0.0,97,0.00,,,0.00,Wunderground v.1.15,2013-07-28 09:10:00,
2013-07-28 05:20:00,72.4,71.5,29.94,WNW,291,0.0,0.0,97,0.00,,,0.00,Wunderground v.1.15,2013-07-28 09:20:00,
2013-07-28 05:30:00,72.4,71.5,29.94,WNW,291,0.0,0.0,97,0.00,,,0.00,Wunderground v.1.15,2013-07-28 09:30:00,
2013-07-28 05:40:00,72.6,72.0,29.94,WNW,291,0.0,0.0,98,0.00,,,0.00,Wunderground v.1.15,2013-07-28 09:40:00,
2013-07-28 05:45:00,72.7,72.1,29.95,WNW,291,0.0,0.0,98,0.00,,,0.00,Wunderground v.1.15,2013-07-28 09:45:00,
2013-07-28 05:55:00,72.9,72.3,29.95,WNW,291,0.0,0.0,98,0.00,,,0.00,Wunderground v.1.15,2013-07-28 09:55:00,
2013-07-28 06:00:00,72.9,72.3,29.95,WNW,291,0.0,0.0,98,0.00,,,0.00,Wunderground v.1.15,2013-07-28 10:00:00,
2013-07-28 06:10:00,72.9,72.0,29.95,WNW,291,0.0,0.0,97,0.00,,,0.00,Wunderground v.1.15,2013-07-28 10:10:00,
2013-07-28 06:15:00,72.9,72.0,29.95,WNW,291,0.0,0.0,97,0.00,,,0.00,Wunderground v.1.15,2013-07-28 10:15:00,
2013-07-28 06:25:00,72.9,72.3,29.95,WNW,291,0.0,0.0,98,0.00,,,0.00,Wunderground v.1.15,2013-07-28 10:25:00,
2013-07-28 06:30:00,72.9,72.3,29.95,WNW,291,0.0,0.0,98,0.00,,,0.00,Wunderground v.1.15,2013-07-28 10:30:00,
2013-07-28 06:40:00,72.8,72.2,29.95,WNW,291,0.0,0.0,98,0.00,,,0.00,Wunderground v.1.15,2013-07-28 10:40:00,
2013-07-28 06:45:00,72.8,72.2,29.95,WNW,291,0.0,0.0,98,0.00,,,0.00,Wunderground v.1.15,2013-07-28 10:45:00,
2013-07-28 06:55:00,72.7,72.1,29.95,WNW,291,0.0,0.0,98,0.00,,,0.00,Wunderground v.1.15,2013-07-28 10:55:00,
2013-07-28 07:05:00,72.7,72.1,29.96,WNW,291,0.0,0.0,98,0.00,,,0.00,Wunderground v.1.15,2013-07-28 11:05:00,
2013-07-28 07:15:00,72.8,72.2,29.96,WNW,291,0.0,0.0,98,0.00,,,0.00,Wunderground v.1.15,2013-07-28 11:15:00,
2013-07-28 07:20:00,72.9,72.3,29.96,WNW,291,0.0,0.0,98,0.00,,,0.00,Wunderground v.1.15,2013-07-28 11:20:00,
2013-07-28 07:25:00,73.0,72.7,29.96,WNW,291,0.0,0.0,99,0.00,,,0.00,Wunderground v.1.15,2013-07-28 11:25:00,
2013-07-28 07:35:00,73.4,73.1,29.97,WNW,291,0.0,0.0,99,0.00,,,0.00,Wunderground v.1.15,2013-07-28 11:35:00,
2013-07-28 07:40:00,73.8,73.5,29.97,WNW,291,0.0,0.0,99,0.00,,,0.00,Wunderground v.1.15,2013-07-28 11:40:00,
2013-07-28 07:50:00,74.4,74.1,29.97,WNW,291,0.0,0.0,99,0.00,,,0.00,Wunderground v.1.15,2013-07-28 11:50:00,
2013-07-28 07:55:00,74.7,74.4,29.97,WNW,291,0.0,0.0,99,0.00,,,0.00,Wunderground v.1.15,2013-07-28 11:55:00,
2013-07-28 08:05:00,75.6,75.0,29.97,South,187,0.0,0.0,98,0.00,,,0.00,Wunderground v.1.15,2013-07-28 12:05:00,
2013-07-28 08:10:00,76.1,75.5,29.97,SSE,168,0.0,0.0,98,0.00,,,0.00,Wunderground v.1.15,2013-07-28 12:10:00,
2013-07-28 08:20:00,77.1,75.9,29.98,SSE,168,1.0,1.0,96,0.00,,,0.00,Wunderground v.1.15,2013-07-28 12:20:00,
2013-07-28 08:25:00,77.6,76.4,29.98,SSE,168,0.0,1.0,96,0.00,,,0.00,Wunderground v.1.15,2013-07-28 12:25:00,
2013-07-28 08:35:00,78.3,76.4,29.98,SSE,163,0.0,0.0,94,0.00,,,0.00,Wunderground v.1.15,2013-07-28 12:35:00,
2013-07-28 08:45:00,78.8,76.6,29.98,SW,227,1.0,1.0,93,0.00,,,0.00,Wunderground v.1.15,2013-07-28 12:45:00,
2013-07-28 08:50:00,79.0,76.5,29.98,SSW,213,0.0,1.0,92,0.00,,,0.00,Wunderground v.1.15,2013-07-28 12:50:00,
2013-07-28 09:00:00,79.7,77.2,29.98,SW,217,0.0,0.0,92,0.00,,,0.00,Wunderground v.1.15,2013-07-28 13:00:00,
2013-07-28 09:05:00,80.2,77.3,29.99,SW,217,0.0,0.0,91,0.00,,,0.00,Wunderground v.1.15,2013-07-28 13:05:00,
2013-07-28 09:15:00,81.6,78.0,29.99,South,191,0.0,1.0,89,0.00,,,0.00,Wunderground v.1.15,2013-07-28 13:15:00,
2013-07-28 09:20:00,82.2,77.9,29.99,WSW,241,1.0,1.0,87,0.00,,,0.00,Wunderground v.1.15,2013-07-28 13:20:00,
2013-07-28 09:30:00,83.2,78.2,29.99,West,259,1.0,1.0,85,0.00,,,0.00,Wunderground v.1.15,2013-07-28 13:30:00,
2013-07-28 09:40:00,83.1,78.1,29.99,West,279,0.0,0.0,85,0.00,,,0.00,Wunderground v.1.15,2013-07-28 13:40:00,
2013-07-28 09:45:00,82.7,77.7,29.99,West,278,0.0,0.0,85,0.00,,,0.00,Wunderground v.1.15,2013-07-28 13:45:00,
2013-07-28 09:55:00,82.6,78.0,29.99,West,278,0.0,0.0,86,0.00,,,0.00,Wunderground v.1.15,2013-07-28 13:55:00,
2013-07-28 10:00:00,82.7,78.1,29.99,South,169,0.0,0.0,86,0.00,,,0.00,Wunderground v.1.15,2013-07-28 14:00:00,
2013-07-28 10:10:00,83.0,78.4,29.99,South,169,0.0,0.0,86,0.00,,,0.00,Wunderground v.1.15,2013-07-28 14:10:00,
2013-07-28 10:15:00,83.0,78.0,29.99,West,271,1.0,1.0,85,0.00,,,0.00,Wunderground v.1.15,2013-07-28 14:15:00,
2013-07-28 10:20:00,83.1,78.5,29.99,West,271,1.0,1.0,86,0.00,,,0.00,Wunderground v.1.15,2013-07-28 14:20:00,
2013-07-28 10:30:00,83.9,78.5,30.00,SSW,194,1.0,1.0,84,0.00,,,0.00,Wunderground v.1.15,2013-07-28 14:30:00,
2013-07-28 10:35:00,84.6,78.5,30.00,WSW,257,1.0,1.0,82,0.00,,,0.00,Wunderground v.1.15,2013-07-28 14:35:00,
2013-07-28 10:45:00,84.1,77.3,30.00,West,259,1.0,1.0,80,0.00,,,0.00,Wunderground v.1.15,2013-07-28 14:45:00,
2013-07-28 10:55:00,83.7,77.6,30.00,West,265,1.0,1.0,82,0.00,,,0.00,Wunderground v.1.15,2013-07-28 14:55:00,
2013-07-28 11:00:00,83.9,77.4,30.00,WSW,237,1.0,1.0,81,0.00,,,0.00,Wunderground v.1.15,2013-07-28 15:00:00,
2013-07-28 11:05:00,84.1,77.6,30.00,West,265,1.0,1.0,81,0.00,,,0.00,Wunderground v.1.15,2013-07-28 15:05:00,
2013-07-28 11:15:00,84.3,77.8,30.00,West,271,1.0,1.0,81,0.00,,,0.00,Wunderground v.1.15,2013-07-28 15:15:00,
2013-07-28 11:25:00,85.4,78.5,30.01,SW,231,1.0,1.0,80,0.00,,,0.00,Wunderground v.1.15,2013-07-28 15:25:00,
2013-07-28 11:30:00,86.0,78.3,30.01,WSW,238,1.0,1.0,78,0.00,,,0.00,Wunderground v.1.15,2013-07-28 15:30:00,
2013-07-28 11:35:00,86.3,78.6,30.01,WSW,238,0.0,1.0,78,0.00,,,0.00,Wunderground v.1.15,2013-07-28 15:35:00,
2013-07-28 11:45:00,86.5,78.4,30.00,SW,227,1.0,1.0,77,0.00,,,0.00,Wunderground v.1.15,2013-07-28 15:45:00,
2013-07-28 11:50:00,86.5,78.4,30.00,WNW,282,1.0,1.0,77,0.00,,,0.00,Wunderground v.1.15,2013-07-28 15:50:00,
2013-07-28 12:00:00,86.9,77.6,30.00,SW,230,1.0,1.0,74,0.00,,,0.00,Wunderground v.1.15,2013-07-28 16:00:00,
2013-07-28 12:05:00,87.2,78.3,30.00,SW,230,1.0,1.0,75,0.00,,,0.00,Wunderground v.1.15,2013-07-28 16:05:00,
2013-07-28 12:15:00,86.7,77.8,30.00,West,272,1.0,1.0,75,0.00,,,0.00,Wunderground v.1.15,2013-07-28 16:15:00,
2013-07-28 12:25:00,86.9,76.8,30.00,WSW,257,0.0,1.0,72,0.00,,,0.00,Wunderground v.1.15,2013-07-28 16:25:00,
2013-07-28 12:30:00,87.0,77.7,30.00,West,259,1.0,1.0,74,0.00,,,0.00,Wunderground v.1.15,2013-07-28 16:30:00,
2013-07-28 12:40:00,86.6,76.9,30.00,West,273,1.0,1.0,73,0.00,,,0.00,Wunderground v.1.15,2013-07-28 16:40:00,
2013-07-28 12:45:00,86.9,78.0,30.00,West,271,1.0,1.0,75,0.00,,,0.00,Wunderground v.1.15,2013-07-28 16:45:00,
2013-07-28 12:55:00,87.3,77.6,30.00,West,269,1.0,2.0,73,0.00,,,0.00,Wunderground v.1.15,2013-07-28 16:55:00,
2013-07-28 13:00:00,87.0,77.7,30.00,West,259,1.0,1.0,74,0.00,,,0.00,Wunderground v.1.15,2013-07-28 17:00:00,
2013-07-28 13:10:00,87.4,77.3,30.00,South,169,0.0,0.0,72,0.00,,,0.00,Wunderground v.1.15,2013-07-28 17:10:00,
2013-07-28 13:15:00,88.5,77.5,29.99,WNW,294,1.0,1.0,70,0.00,,,0.00,Wunderground v.1.15,2013-07-28 17:15:00,
2013-07-28 13:25:00,90.5,77.6,29.99,WSW,238,1.0,3.0,66,0.00,,,0.00,Wunderground v.1.15,2013-07-28 17:25:00,
2013-07-28 13:35:00,90.8,76.5,29.99,West,261,1.0,4.0,63,0.00,,,0.00,Wunderground v.1.15,2013-07-28 17:35:00,
2013-07-28 13:45:00,90.1,76.3,29.99,WNW,302,1.0,1.0,64,0.00,,,0.00,Wunderground v.1.15,2013-07-28 17:45:00,
2013-07-28 13:50:00,89.8,76.0,29.99,NNW,333,1.0,2.0,64,0.00,,,0.00,Wunderground v.1.15,2013-07-28 17:50:00,
2013-07-28 14:00:00,89.2,76.4,29.99,WSW,257,1.0,1.0,66,0.00,,,0.00,Wunderground v.1.15,2013-07-28 18:00:00,
2013-07-28 14:10:00,89.9,78.4,29.98,SE,140,1.0,1.0,69,0.00,,,0.00,Wunderground v.1.15,2013-07-28 18:10:00,
2013-07-28 14:15:00,90.7,75.4,29.98,SSW,209,1.0,1.0,61,0.00,,,0.00,Wunderground v.1.15,2013-07-28 18:15:00,
2013-07-28 14:25:00,90.7,76.4,29.98,West,279,0.0,1.0,63,0.00,,,0.00,Wunderground v.1.15,2013-07-28 18:25:00,
2013-07-28 14:30:00,91.0,74.7,29.99,SW,216,1.0,1.0,59,0.00,,,0.00,Wunderground v.1.15,2013-07-28 18:30:00,
2013-07-28 14:40:00,90.6,79.5,29.97,South,184,0.0,0.0,70,0.00,,,0.00,Wunderground v.1.15,2013-07-28 18:40:00,
2013-07-28 14:50:00,89.6,78.1,29.98,SSE,165,1.0,2.0,69,0.00,,,0.00,Wunderground v.1.15,2013-07-28 18:50:00,
2013-07-28 15:00:00,87.0,75.2,29.98,SSE,157,2.0,2.0,68,0.00,,,0.00,Wunderground v.1.15,2013-07-28 19:00:00,
2013-07-28 15:05:00,85.7,74.4,29.99,East,79,3.0,5.0,69,0.00,,,0.00,Wunderground v.1.15,2013-07-28 19:05:00,
2013-07-28 15:15:00,80.2,72.3,29.99,South,174,4.0,7.0,77,0.00,,,0.00,Wunderground v.1.15,2013-07-28 19:15:00,
2013-07-28 15:20:00,77.0,71.4,30.00,SSE,167,5.0,9.0,83,0.43,,,0.03,Wunderground v.1.15,2013-07-28 19:20:00,
2013-07-28 15:25:00,75.2,70.7,29.99,ESE,109,5.0,9.0,86,0.12,,,0.04,Wunderground v.1.15,2013-07-28 19:25:00,
2013-07-28 15:35:00,74.6,71.1,29.99,SSW,213,3.0,3.0,89,0.08,,,0.05,Wunderground v.1.15,2013-07-28 19:35:00,
2013-07-28 15:45:00,74.4,72.2,30.02,SW,232,3.0,4.0,93,1.22,,,0.13,Wunderground v.1.15,2013-07-28 19:45:00,
2013-07-28 15:55:00,74.0,72.5,30.02,West,259,3.0,4.0,95,0.26,,,0.24,Wunderground v.1.15,2013-07-28 19:55:00,
2013-07-28 16:00:00,73.4,71.9,30.02,WSW,252,3.0,3.0,95,1.15,,,0.32,Wunderground v.1.15,2013-07-28 20:00:00,
2013-07-28 16:10:00,72.6,71.4,30.02,SW,232,2.0,2.0,96,0.12,,,0.36,Wunderground v.1.15,2013-07-28 20:10:00,
2013-07-28 16:25:00,72.5,71.6,30.03,SE,126,1.0,1.0,97,0.05,,,0.38,Wunderground v.1.15,2013-07-28 20:25:00,
2013-07-28 16:30:00,72.4,71.5,30.02,East,80,1.0,1.0,97,0.05,,,0.38,Wunderground v.1.15,2013-07-28 20:30:00,
2013-07-28 16:40:00,72.5,71.6,30.01,SE,136,0.0,0.0,97,0.05,,,0.39,Wunderground v.1.15,2013-07-28 20:40:00,
2013-07-28 16:45:00,72.5,71.6,30.01,SE,136,0.0,0.0,97,0.05,,,0.39,Wunderground v.1.15,2013-07-28 20:45:00,
2013-07-28 16:55:00,72.6,72.0,30.01,SE,140,0.0,0.0,98,0.00,,,0.39,Wunderground v.1.15,2013-07-28 20:55:00,
2013-07-28 17:05:00,72.8,72.2,30.01,ESE,116,0.0,0.0,98,0.00,,,0.39,Wunderground v.1.15,2013-07-28 21:05:00,
2013-07-28 17:15:00,73.2,72.6,30.01,ESE,116,0.0,0.0,98,0.00,,,0.40,Wunderground v.1.15,2013-07-28 21:15:00,
2013-07-28 17:20:00,73.5,72.9,30.01,NE,49,0.0,0.0,98,0.00,,,0.40,Wunderground v.1.15,2013-07-28 21:20:00,
2013-07-28 17:30:00,73.6,73.0,30.02,East,94,0.0,0.0,98,0.00,,,0.40,Wunderground v.1.15,2013-07-28 21:30:00,
2013-07-28 17:35:00,73.8,73.2,30.02,ESE,108,0.0,0.0,98,0.00,,,0.40,Wunderground v.1.15,2013-07-28 21:35:00,
2013-07-28 17:45:00,73.6,73.0,30.01,NNE,29,0.0,0.0,98,0.00,,,0.40,Wunderground v.1.15,2013-07-28 21:45:00,
2013-07-28 17:50:00,73.7,73.1,30.01,NNE,29,0.0,0.0,98,0.00,,,0.40,Wunderground v.1.15,2013-07-28 21:50:00,
2013-07-28 18:00:00,73.7,73.1,30.02,NNE,29,0.0,0.0,98,0.00,,,0.41,Wunderground v.1.15,2013-07-28 22:00:00,
2013-07-28 18:10:00,74.0,73.4,30.02,ESE,121,0.0,1.0,98,0.00,,,0.41,Wunderground v.1.15,2013-07-28 22:10:00,
2013-07-28 18:15:00,74.0,73.4,30.02,SE,126,0.0,1.0,98,0.00,,,0.41,Wunderground v.1.15,2013-07-28 22:15:00,
2013-07-28 18:25:00,74.2,73.6,30.03,SE,126,0.0,0.0,98,0.00,,,0.41,Wunderground v.1.15,2013-07-28 22:25:00,
2013-07-28 18:30:00,74.3,73.7,30.04,WSW,244,1.0,1.0,98,0.00,,,0.41,Wunderground v.1.15,2013-07-28 22:30:00,
2013-07-28 18:35:00,74.0,73.4,30.03,SE,138,1.0,1.0,98,0.00,,,0.41,Wunderground v.1.15,2013-07-28 22:35:00,
2013-07-28 18:45:00,73.9,73.0,30.03,WSW,257,1.0,3.0,97,0.00,,,0.41,Wunderground v.1.15,2013-07-28 22:45:00,
2013-07-28 18:50:00,74.1,73.2,30.02,SSW,199,1.0,1.0,97,0.00,,,0.41,Wunderground v.1.15,2013-07-28 22:50:00,
2013-07-28 19:00:00,74.6,73.7,30.02,East,84,0.0,0.0,97,0.00,,,0.41,Wunderground v.1.15,2013-07-28 23:00:00,
2013-07-28 19:10:00,74.9,74.0,30.02,ESE,111,0.0,0.0,97,0.00,,,0.41,Wunderground v.1.15,2013-07-28 23:10:00,
2013-07-28 19:15:00,75.1,74.2,30.01,South,185,0.0,0.0,97,0.00,,,0.41,Wunderground v.1.15,2013-07-28 23:15:00,
2013-07-28 19:25:00,75.3,74.1,30.01,ESE,108,0.0,1.0,96,0.00,,,0.41,Wunderground v.1.15,2013-07-28 23:25:00,
2013-07-28 19:30:00,75.3,74.1,30.01,SE,138,0.0,0.0,96,0.00,,,0.41,Wunderground v.1.15,2013-07-28 23:30:00,
2013-07-28 19:40:00,75.4,74.2,30.01,SE,146,0.0,0.0,96,0.00,,,0.41,Wunderground v.1.15,2013-07-28 23:40:00,
2013-07-28 19:45:00,75.4,74.2,30.01,SE,146,0.0,0.0,96,0.00,,,0.41,Wunderground v.1.15,2013-07-28 23:45:00,
2013-07-28 19:55:00,75.3,74.4,30.01,SE,146,0.0,0.0,97,0.00,,,0.41,Wunderground v.1.15,2013-07-28 23:55:00,
2013-07-28 20:00:00,75.3,74.4,30.01,SE,146,0.0,0.0,97,0.00,,,0.41,Wunderground v.1.15,2013-07-29 00:00:00,
2013-07-28 20:05:00,75.2,74.3,30.02,SE,146,0.0,0.0,97,0.00,,,0.41,Wunderground v.1.15,2013-07-29 00:05:00,
2013-07-28 20:15:00,75.1,74.2,30.02,SE,146,0.0,0.0,97,0.00,,,0.41,Wunderground v.1.15,2013-07-29 00:15:00,
2013-07-28 20:20:00,75.1,74.2,30.01,SE,146,0.0,0.0,97,0.00,,,0.41,Wunderground v.1.15,2013-07-29 00:20:00,
2013-07-28 20:30:00,74.8,73.9,30.01,SE,146,0.0,0.0,97,0.00,,,0.41,Wunderground v.1.15,2013-07-29 00:30:00,
2013-07-28 20:40:00,74.6,73.7,30.02,SE,146,0.0,0.0,97,0.00,,,0.41,Wunderground v.1.15,2013-07-29 00:40:00,
2013-07-28 20:50:00,74.3,73.4,30.02,SE,146,0.0,0.0,97,0.00,,,0.41,Wunderground v.1.15,2013-07-29 00:50:00,
2013-07-28 21:00:00,74.1,73.2,30.02,SE,146,0.0,0.0,97,0.00,,,0.41,Wunderground v.1.15,2013-07-29 01:00:00,
2013-07-28 21:10:00,74.0,73.1,30.03,SE,146,0.0,0.0,97,0.00,,,0.41,Wunderground v.1.15,2013-07-29 01:10:00,
2013-07-28 21:15:00,73.8,72.9,30.02,SE,146,0.0,0.0,97,0.00,,,0.41,Wunderground v.1.15,2013-07-29 01:15:00,
2013-07-28 21:25:00,73.7,73.1,30.03,SE,146,0.0,0.0,98,0.00,,,0.41,Wunderground v.1.15,2013-07-29 01:25:00,
2013-07-28 21:30:00,73.7,73.1,30.03,SE,146,0.0,0.0,98,0.00,,,0.41,Wunderground v.1.15,2013-07-29 01:30:00,
2013-07-28 21:40:00,73.6,73.0,30.03,SE,146,0.0,0.0,98,0.00,,,0.41,Wunderground v.1.15,2013-07-29 01:40:00,
2013-07-28 21:45:00,73.5,72.9,30.03,SE,146,0.0,0.0,98,0.00,,,0.41,Wunderground v.1.15,2013-07-29 01:45:00,
2013-07-28 21:55:00,73.4,72.8,30.04,SE,146,0.0,0.0,98,0.00,,,0.41,Wunderground v.1.15,2013-07-29 01:55:00,
2013-07-28 22:00:00,73.4,72.8,30.04,SE,146,0.0,0.0,98,0.00,,,0.41,Wunderground v.1.15,2013-07-29 02:00:00,
2013-07-28 22:10:00,73.4,72.8,30.04,SE,146,0.0,0.0,98,0.00,,,0.41,Wunderground v.1.15,2013-07-29 02:10:00,
2013-07-28 22:20:00,73.3,72.7,30.05,SE,146,0.0,0.0,98,0.00,,,0.41,Wunderground v.1.15,2013-07-29 02:20:00,
2013-07-28 22:25:00,73.3,72.7,30.05,SE,146,0.0,0.0,98,0.00,,,0.41,Wunderground v.1.15,2013-07-29 02:25:00,
2013-07-28 22:30:00,73.2,72.6,30.05,SE,146,0.0,0.0,98,0.00,,,0.41,Wunderground v.1.15,2013-07-29 02:30:00,
2013-07-28 22:40:00,73.1,72.5,30.05,SE,146,0.0,0.0,98,0.00,,,0.41,Wunderground v.1.15,2013-07-29 02:40:00,
2013-07-28 22:45:00,73.0,72.4,30.05,SE,146,0.0,0.0,98,0.00,,,0.41,Wunderground v.1.15,2013-07-29 02:45:00,
2013-07-28 22:55:00,72.9,72.3,30.05,SE,146,0.0,0.0,98,0.00,,,0.41,Wunderground v.1.15,2013-07-29 02:55:00,
2013-07-28 23:00:00,72.8,72.2,30.05,SE,146,0.0,0.0,98,0.00,,,0.41,Wunderground v.1.15,2013-07-29 03:00:00,
2013-07-28 23:05:00,72.8,72.2,30.06,SE,146,0.0,0.0,98,0.00,,,0.41,Wunderground v.1.15,2013-07-29 03:05:00,
2013-07-28 23:15:00,72.7,72.1,30.05,SE,146,0.0,0.0,98,0.00,,,0.41,Wunderground v.1.15,2013-07-29 03:15:00,
2013-07-28 23:25:00,72.7,72.4,30.06,SE,146,0.0,0.0,99,0.00,,,0.41,Wunderground v.1.15,2013-07-29 03:25:00,
2013-07-28 23:30:00,72.6,72.3,30.05,SE,146,0.0,0.0,99,0.00,,,0.41,Wunderground v.1.15,2013-07-29 03:30:00,
2013-07-28 23:40:00,72.5,72.2,30.05,SE,146,0.0,0.0,99,0.00,,,0.41,Wunderground v.1.15,2013-07-29 03:40:00,
2013-07-28 23:50:00,72.4,71.8,30.06,SE,146,0.0,0.0,98,0.00,,,0.41,Wunderground v.1.15,2013-07-29 03:50:00,